Torna al catalogo

STARLINK-5795

AttivoComunicazioniVLEO
NORAD 56039·PAYLOAD·🇺🇸 United States

Lanciato Mar 24, 2023 da Cape Canaveral Space Force Station

Loading…

Prossimi Passaggi (prossime 24 ore)

TLE

AggiornatoSource: CelesTrak SupGP

Epoca: Sep 14, 2026, 13:24 UTC

1 56039C 23042BF  26257.55881944 -.00030659  00000+0 -11106-2 0  2572
2 56039  43.0015  44.3492 0001777 269.7717 120.1792 15.27589589    17

Traccia STARLINK-5795 in tempo reale con AllMySat

Download on the App Store